, FL

(GMT )
Crestview

Weather History for KEGI - February, 2014

Change the Weather History Date:

Sunday, February 23, 2014

  Actual Average Record
Temperature  
Mean Temperature 56 °F -  
Max Temperature 64 °F - - ()
Min Temperature 48 °F - - ()
Degree Days  
Heating Degree Days 9    
Growing Degree Days 6 (Base 50)    
Moisture  
Dew Point 58 °F    
Average Humidity 97    
Maximum Humidity 100    
Minimum Humidity 72    
Precipitation  
Precipitation 0.46 in - - ()
Sea Level Pressure  
Sea Level Pressure 30.03 in    
Wind  
Wind Speed 4 mph (SSE)    
Max Wind Speed 17 mph    
Max Gust Speed 24 mph    
Visibility 8 miles    
Events Rain , Thunderstorm    
T = Trace of Precipitation, MM = Missing Value Source: NWS Daily Summary

Daily Weather History Graph

Daily Weather History Graph

Search for Another Location

Airport or City:

Trip Planner

Search our weather history database for the weather conditions in past years. The results will help you decide how hot, cold, wet, or windy it might be!

Date:

Astronomy

Feb. 23, 2014 Rise Set
Actual Time 6:18 AM CST 5:40 PM CST
Civil Twilight 5:54 AM CST 6:04 PM CST
Nautical Twilight 5:26 AM CST 6:32 PM CST
Astronomical Twilight 4:58 AM CST 7:00 PM CST
Moon 1:04 AM CST (2/23) 11:54 AM CST (2/23)
Length of Visible Light 12h 10m
Length of Day
11h 21m
Last Quarter, 38% of the Moon is Illuminated
Feb 23
Last Quarter
Mar 1
New
Mar 8
First Quarter
Mar 16
Full
Mar 23
Last Quarter

Hourly Weather History & Observations

Time (CST) Temp. Dew Point Humidity Pressure Visibility Wind Dir Wind Speed Gust Speed Precip Events Conditions
12:58 AM 48.6 °F 42.3 °F 79% 30.05 in 10.0 mi Calm Calm - N/A   Clear
1:58 AM 48.9 °F 45.0 °F 86% 30.04 in 10.0 mi Calm Calm - N/A   Scattered Clouds
2:23 AM 51.8 °F 44.6 °F 76% 30.03 in 10.0 mi Calm Calm - N/A   Mostly Cloudy
2:58 AM 51.6 °F 43.7 °F 74% 30.02 in 10.0 mi Calm Calm - N/A   Scattered Clouds
3:44 AM 53.6 °F 44.6 °F 72% 30.00 in 10.0 mi Calm Calm - N/A Rain Light Rain
3:54 AM 53.6 °F 44.6 °F 72% 29.99 in 10.0 mi ENE 2.3 mph - N/A Rain Light Rain
3:55 AM 53.6 °F 44.6 °F 72% 29.99 in 10.0 mi NE 1.2 mph - N/A   Mostly Cloudy
3:58 AM 52.7 °F 45.1 °F 75% 30.00 in 10.0 mi Calm Calm - 0.00 in   Mostly Cloudy
4:27 AM 53.6 °F 44.6 °F 72% 29.99 in 10.0 mi SE 3.5 mph - N/A Rain , Thunderstorm Light Rain
4:32 AM 53.6 °F 46.4 °F 77% 29.99 in 9.0 mi SE 3.5 mph - N/A Rain , Thunderstorm Thunderstorms and Rain
4:58 AM 53.8 °F 52.0 °F 94% 30.07 in 5.0 mi WNW 17.3 mph 24.2 mph 0.03 in Rain , Thunderstorm Light Thunderstorms and Rain
5:03 AM 51.8 °F 51.8 °F 100% 30.05 in 2.0 mi West 8.1 mph 24.2 mph N/A Rain , Thunderstorm Heavy Thunderstorms and Rain
5:08 AM 51.8 °F 51.8 °F 100% 30.04 in 1.8 mi South 4.6 mph 24.2 mph N/A Rain , Thunderstorm Heavy Thunderstorms and Rain
5:13 AM 51.8 °F 51.8 °F 100% 30.02 in 3.0 mi South 10.4 mph - N/A Rain , Thunderstorm Thunderstorms and Rain
5:14 AM 51.8 °F 51.8 °F 100% 30.02 in 5.0 mi South 10.4 mph - N/A Rain , Thunderstorm Rain
5:49 AM 57.2 °F 57.2 °F 100% 30.01 in 10.0 mi South 5.8 mph - N/A Rain , Thunderstorm Light Thunderstorms and Rain
5:58 AM 57.6 °F 57.6 °F 100% 30.02 in 10.0 mi South 4.6 mph - 0.13 in Rain , Thunderstorm Light Thunderstorms and Rain
6:08 AM 57.2 °F 57.2 °F 100% 30.04 in 7.0 mi South 5.8 mph - N/A Rain , Thunderstorm Rain
6:58 AM 55.9 °F 55.9 °F 100% 30.03 in 4.0 mi South 3.5 mph - 0.07 in Rain Rain
7:13 AM 57.2 °F 57.2 °F 100% 30.02 in 5.0 mi SE 3.5 mph - N/A Rain Rain
7:33 AM 59.0 °F 59.0 °F 100% 30.02 in 10.0 mi SSE 4.6 mph - N/A Rain Light Rain
7:37 AM 59.0 °F 59.0 °F 100% 30.03 in 10.0 mi South 8.1 mph - N/A Rain Light Rain
7:47 AM 59.0 °F 59.0 °F 100% 30.04 in 8.0 mi South 8.1 mph - N/A Rain Light Rain
7:52 AM 59.0 °F 59.0 °F 100% 30.04 in 6.0 mi South 10.4 mph - N/A Rain Heavy Rain
7:57 AM 59.0 °F 59.0 °F 100% 30.04 in 5.0 mi SSE 8.1 mph - N/A Rain Rain
7:58 AM 58.8 °F 58.8 °F 100% 30.05 in 5.0 mi SSE 8.1 mph - 0.05 in Rain Rain
8:24 AM 59.0 °F 59.0 °F 100% 30.05 in 6.0 mi SSE 5.8 mph - N/A Rain , Thunderstorm Light Thunderstorms and Rain
8:39 AM 59.0 °F 59.0 °F 100% 30.06 in 2.0 mi Calm Calm - N/A Rain , Thunderstorm Thunderstorms and Rain
8:44 AM 59.0 °F 59.0 °F 100% 30.07 in 2.5 mi Calm Calm - N/A Rain , Thunderstorm Thunderstorms and Rain
8:46 AM 59.0 °F 59.0 °F 100% 30.07 in 2.0 mi Calm Calm - N/A Rain , Thunderstorm Rain
8:51 AM 59.0 °F 59.0 °F 100% 30.07 in 2.0 mi Calm Calm - N/A Rain , Thunderstorm Rain
8:56 AM 59.0 °F 59.0 °F 100% 30.07 in 3.0 mi South 3.5 mph - N/A Rain , Thunderstorm Heavy Rain
8:57 AM 59.0 °F 59.0 °F 100% 30.07 in 3.0 mi South 3.5 mph - N/A Rain , Thunderstorm Heavy Thunderstorms and Rain
8:58 AM 59.0 °F 59.0 °F 100% 30.08 in 3.0 mi South 4.6 mph - 0.05 in Rain , Thunderstorm Heavy Thunderstorms and Rain
9:12 AM 59.0 °F 59.0 °F 100% 30.07 in 3.0 mi SSE 3.5 mph - N/A Rain Heavy Rain
9:32 AM 59.0 °F 59.0 °F 100% 30.06 in 5.0 mi SSE 3.5 mph - N/A Rain Rain
9:41 AM 60.8 °F 60.8 °F 100% 30.07 in 10.0 mi SSE 8.1 mph - N/A Rain Light Rain
9:46 AM 60.8 °F 60.8 °F 100% 30.07 in 10.0 mi SSE 5.8 mph - N/A Rain Light Rain
9:51 AM 60.8 °F 60.8 °F 100% 30.06 in 10.0 mi SSE 5.8 mph - N/A Rain Light Rain
9:56 AM 60.8 °F 60.8 °F 100% 30.05 in 10.0 mi SE 5.8 mph - N/A Rain Light Rain
9:58 AM 60.3 °F 60.3 °F 100% 30.06 in 10.0 mi SSE 5.8 mph - 0.03 in Rain Light Rain
10:03 AM 60.8 °F 60.8 °F 100% 30.05 in 9.0 mi SSE 4.6 mph - N/A Rain Rain
10:43 AM 62.6 °F 62.6 °F 100% 30.05 in 10.0 mi South 5.8 mph - N/A   Light Drizzle
10:58 AM 62.4 °F 62.4 °F 100% 30.06 in 10.0 mi South 5.8 mph - 0.02 in Rain Light Rain
11:13 AM 62.6 °F 62.6 °F 100% 30.05 in 9.0 mi South 4.6 mph - N/A Rain Light Rain
11:33 AM 62.6 °F 62.6 °F 100% 30.04 in 3.0 mi SSE 2.3 mph - N/A Rain Rain
11:38 AM 62.6 °F 62.6 °F 100% 30.04 in 4.0 mi Calm Calm - N/A Rain Rain
11:48 AM 62.6 °F 62.6 °F 100% 30.05 in 4.0 mi SSE 5.8 mph - N/A Rain Light Rain
11:58 AM 63.0 °F 63.0 °F 100% 30.05 in 6.0 mi SSE 3.5 mph - 0.02 in Rain Light Rain
12:08 PM 62.6 °F 62.6 °F 100% 30.04 in 10.0 mi Variable 2.3 mph - N/A Rain Light Rain
12:09 PM 62.6 °F 62.6 °F 100% 30.04 in 10.0 mi SE 2.3 mph - N/A Rain Light Rain
12:26 PM 64.4 °F 64.4 °F 100% 30.03 in 10.0 mi ESE 2.3 mph - N/A   Overcast
12:56 PM 64.4 °F 64.4 °F 100% 30.02 in 10.0 mi SE 4.6 mph - N/A Rain Light Rain
12:58 PM 64.4 °F 64.4 °F 100% 30.03 in 10.0 mi SE 3.5 mph - 0.01 in   Light Drizzle
1:12 PM 64.4 °F 64.4 °F 100% 30.01 in 10.0 mi NE 1.2 mph - N/A   Overcast
1:39 PM 64.4 °F 64.4 °F 100% 30.01 in 10.0 mi Calm Calm - N/A   Light Drizzle
1:58 PM 64.4 °F 64.4 °F 100% 30.01 in 10.0 mi SSE 3.5 mph - 0.01 in Rain Light Rain
2:07 PM 64.4 °F 64.4 °F 100% 30.00 in 10.0 mi SSE 3.5 mph - N/A   Overcast
2:57 PM 64.4 °F 64.4 °F 100% 29.99 in 10.0 mi SSE 8.1 mph - N/A Rain Light Rain
2:58 PM 64.2 °F 64.2 °F 100% 30.00 in 10.0 mi SSE 8.1 mph - 0.00 in Rain Light Rain
3:09 PM 64.4 °F 64.4 °F 100% 29.99 in 10.0 mi SSE 8.1 mph - N/A   Overcast
3:18 PM 64.4 °F 64.4 °F 100% 29.99 in 10.0 mi SSE 6.9 mph - N/A Rain Light Rain
3:58 PM 62.8 °F 62.8 °F 100% 29.99 in 9.0 mi SSE 6.9 mph - 0.01 in Rain Light Rain
4:58 PM 61.9 °F 61.9 °F 100% 29.99 in 8.0 mi South 9.2 mph - 0.00 in Rain Rain
5:45 PM 62.6 °F 62.6 °F 100% 29.97 in 10.0 mi SSE 4.6 mph - N/A   Overcast
5:58 PM 61.7 °F 61.7 °F 100% 29.98 in 10.0 mi SE 4.6 mph - 0.01 in   Overcast
6:23 PM 62.6 °F 62.6 °F 100% 29.98 in 10.0 mi South 5.8 mph - N/A   Overcast
6:58 PM 61.7 °F 61.7 °F 100% 30.00 in 10.0 mi South 5.8 mph - N/A   Overcast
7:58 PM 61.9 °F 61.9 °F 100% 30.01 in 10.0 mi SSE 5.8 mph - 0.01 in   Overcast
8:38 PM 62.6 °F 62.6 °F 100% 30.01 in 10.0 mi South 3.5 mph - N/A   Overcast
8:58 PM 61.9 °F 61.9 °F 100% 30.03 in 9.0 mi South 8.1 mph - N/A   Overcast
9:53 PM 62.6 °F 62.6 °F 100% 30.04 in 10.0 mi SSE 5.8 mph - N/A   Overcast
9:58 PM 62.2 °F 62.2 °F 100% 30.05 in 10.0 mi South 8.1 mph - N/A   Overcast
10:18 PM 62.6 °F 62.6 °F 100% 30.04 in 10.0 mi South 4.6 mph - N/A   Overcast
10:58 PM 62.2 °F 62.2 °F 100% 30.05 in 10.0 mi West 2.3 mph - 0.01 in   Overcast
11:48 PM 62.6 °F 62.6 °F 100% 30.04 in 10.0 mi Calm Calm - N/A   Overcast
11:58 PM 62.2 °F 62.1 °F 99% 30.04 in 7.0 mi Calm Calm - N/A   Overcast